Regional Weather Roundup
Issued by NWS Green Bay, WI

Home | Current Version | Previous Version | Text Only | Print | Product List | Glossary On
Versions: 1 2 3 4 5 6 7 8 9 10 11 12 13 14 15 16 17 18 19 20 21 22 23 24 25 26 27 28 29 30 31 32 33 34 35 36 37 38 39 40 41 42 43 44 45 46 47 48 49 50
000
ASUS43 KGRB 061811
RWRGRB

NORTH-CENTRAL AND NORTHEAST WISCONSIN REGIONAL WEATHER ROUNDUP
NATIONAL WEATHER SERVICE GREEN BAY WI
100 PM CDT MON JUL 06 2015

WIZ005-009-010>012-018-019-061900-
NORTH CENTRAL WISCONSIN

CITY           SKY/WX    TMP DP  RH WIND       PRES   REMARKS
IRONWOOD       CLOUDY    55  55 100 N12G20    29.84R
MANITOWISH WTR RAIN      68  68 100 CALM      29.82F
ARBOR VITAE    DRIZZLE   72  70  94 S7        29.82F
EAGLE RIVER    LGT RAIN  70  68  94 S5        29.82F
LAND O LAKES   RAIN      68  67  96 CALM      29.83F
RHINELANDER    CLOUDY    71  67  87 SW5       29.84F
PHILLIPS       HVY RAIN  67  67 100 CALM      29.82S VSB 1
ANTIGO         LGT RAIN  71  69  95 S12       29.85R
TOMAHAWK       CLOUDY    71  67  88 CALM      29.83F
MERRILL        LGT RAIN  73  70  92 S7        29.83S
$$

WIZ013-073-061900-
NORTHEAST WISCONSIN

CITY           SKY/WX    TMP DP  RH WIND       PRES   REMARKS
IRON MOUNTAIN  RAIN      68  67  96 E3        29.83F FOG
MARINETTE      CLOUDY    73  66  78 S3        29.83F
OCONTO         CLOUDY    74  74 100 S7        29.82F
$$

WIZ017-030-035>037-045-061900-
CENTRAL WISCONSIN

CITY           SKY/WX    TMP DP  RH WIND       PRES   REMARKS
MEDFORD        CLOUDY    72  69  90 S8        29.82F
WAUSAU         CLOUDY    73  69  87 S9        29.82S
MOSINEE        PTSUNNY   72  72 100 S8        29.85S
MARSHFIELD     LGT RAIN  75  69  81 S9        29.83F
WISC RAPIDS    CLOUDY    78  70  76 S7        29.83F
STEVENS POINT  CLOUDY    74  68  82 S10       29.84F
WAUPACA        CLOUDY    78  73  83 S12       29.84F
SHAWANO        CLOUDY    75  71  88 S7        29.83F FOG
CLINTONVILLE   CLOUDY    75  72  88 S10       29.83F FOG
$$

WIZ038-039-048-051-061900-
FOX VALLEY

CITY           SKY/WX    TMP DP  RH WIND       PRES   REMARKS
NWS GREEN BAY  CLOUDY    79  71  76 SW12      29.84F HAZE
APPLETON       CLOUDY    75  70  83 SW12G18   29.87S
OSHKOSH        CLOUDY    78  69  73 SW14G21   29.85F
FOND DU LAC    CLOUDY    78  69  73 SW16G24   29.87F
$$

WIZ022-050-052-061900-
EAST CENTRAL WISCONSIN

CITY           SKY/WX    TMP DP  RH WIND       PRES   REMARKS
STURGEON BAY   CLOUDY    72  64  78 SE8       29.88F
MANITOWOC      CLOUDY    73  65  75 MISG      29.87F HAZE
SHEBOYGAN      CLOUDY    79  69  71 SE9       29.87F HAZE
$$

LMZ563-521-522-541>543-061900-
LAKESHORE

STATION/POSITION TIME  TEMP    WIND        PRES    VSBY  WAVE
                       AIR SEA DIR/SP/G                  HT/PER
                 (UTC) (F)     (DEG/KT/KT) (MB)    (MI)  (FT/S)
SHEBOYGAN LKSHOR 1800   62     170/ 20/ 22 1011.8F
KEWAUNEE LKSHORE 1700   60     180/ 17/ 20 1011.9S
ALGOMA MARINA    1741          220/ 12/ 14   N/A
NORTHPORT PIER   1700   70     160/  8/ 16 1011.9S
N MID LAKE BUOY  1750   60 55  200/ 16/ 17 1012.0R         3/ 4
S GREEN BAY BUOY 1800   72 69  190/  4/  6 1011.7
SISTER BAY LKSHO 1729   75     180/ 15/ 18   N/A
CHAMBERS ISLAND  1700   74     150/  5/  8 1011.2F
MENOMINEE LKSHOR 1700   73     180/  7/ 11 1012.0S
$$



USA.gov is the U.S. government's official web portal to all federal, state and local government web resources and services.